Home > Weather > Adelaide > Past weeks

Flag for Australia Weather for the Past 2 Weeks in Adelaide, South Australia, Australia

Now
64 °F

Passing clouds.


Feels Like: 64 °F
Forecast: 63 / 81 °F
Wind: 9 mph from Southeast

Location: Adelaide Airport

Current Time: Feb 8, 2016 at 12:09:59 AM

Latest Report: Feb 7, 2016 at 11:30 PM


Visibility: N/A

Pressure: 30.12 "Hg

Humidity: 73%

Dew point: 55 °F

Location of AdelaideLocation

Historic Weather in Adelaide — Graph

°F

Adelaide Temperature Yesterday

Maximum temperature yesterday: 81 °F (at 3:30 PM)
Minimum temperature yesterday: 63 °F (at 7:00 AM)
Average temperature yesterday: 72 °F

High & Low Weather Summary for the Past Weeks

 TemperatureHumidityPressure
High84 °F (Jan 25, 4:30 PM)94% (Jan 29, 11:34 PM)30.15 "Hg (Jan 29, 11:34 PM)
Low55 °F (Jan 29, 6:30 AM)25% (Jan 27, 9:30 AM)29.39 "Hg (Feb 2, 8:19 AM)
Average69 °F62%29.84 "Hg
* Reported Jan 23 10:30 PM — Feb 7 10:30 PM, Adelaide, Weather by CustomWeather, © 2016

Note: Actual official high and low records may vary slightly from our data, if they occured in-between our weather recording intervals... More about our weather records

Advertising

Adelaide Weather History for the Previous 24 Hours

 ConditionsComfort  
Time TempWeatherWind HumidityBarometerVisibility
10:30 PM
Sun, Feb 7
66 °FPassing clouds.15 mph68%30.09 "HgN/A
10:00 PM66 °FPassing clouds.16 mph68%30.09 "HgN/A
9:30 PM66 °FClear.15 mph73%30.09 "Hg10 mi
9:00 PM70 °FClear.14 mph64%30.07 "Hg10 mi
8:30 PM73 °FSunny.14 mph57%30.07 "Hg10 mi
8:00 PM75 °FSunny.12 mph57%30.04 "Hg10 mi
7:30 PM81 °FSunny.14 mph48%30.04 "Hg10 mi
7:00 PM79 °FSunny.13 mph61%30.01 "Hg10 mi
6:30 PM77 °FSunny.20 mph57%30.01 "Hg10 mi
6:00 PM77 °FSunny.20 mph61%30.01 "Hg10 mi
5:30 PM79 °FSunny.20 mph58%30.01 "Hg10 mi
5:00 PM79 °FSunny.18 mph61%30.01 "Hg10 mi
4:30 PM81 °FPassing clouds.17 mph58%30.01 "HgN/A
4:00 PM81 °FPassing clouds.20 mph58%30.01 "HgN/A
3:30 PM81 °FPassing clouds.18 mph58%30.01 "HgN/A
3:00 PM79 °FPassing clouds.20 mph61%30.01 "HgN/A
2:30 PM77 °FPassing clouds.18 mph65%30.04 "HgN/A
2:00 PM79 °FPassing clouds.21 mph58%30.04 "HgN/A
1:30 PM77 °FPassing clouds.18 mph61%30.04 "HgN/A
12:30 PM77 °FSunny.14 mph61%30.04 "Hg10 mi
12:00 PM77 °FSunny.9 mph65%30.04 "Hg10 mi
11:30 AM77 °FSunny.9 mph57%30.04 "Hg10 mi
10:30 AM75 °FSunny.3 mph57%30.04 "Hg10 mi
10:00 AM73 °FPassing clouds.6 mph61%30.04 "HgN/A
9:30 AM72 °FSunny.7 mph61%30.04 "Hg10 mi
9:00 AM72 °FPassing clouds.5 mph69%30.04 "HgN/A
8:30 AM70 °FPassing clouds.3 mph69%30.04 "HgN/A
7:30 AM64 °FPassing clouds.3 mph78%30.01 "HgN/A
7:00 AM63 °FClear.5 mph77%30.01 "Hg10 mi
6:30 AM64 °FClear.5 mph78%30.01 "Hg10 mi
6:00 AM64 °FClear.5 mph78%30.01 "Hg10 mi
5:30 AM66 °FClear.6 mph78%29.98 "Hg10 mi
5:00 AM64 °FClear.6 mph73%29.98 "Hg10 mi
4:30 AM64 °FClear.No wind73%29.98 "Hg10 mi
4:00 AM66 °FClear.6 mph73%29.95 "Hg10 mi
3:30 AM66 °FClear.2 mph68%29.95 "Hg10 mi
3:00 AM66 °FPassing clouds.5 mph73%29.95 "HgN/A
2:30 AM66 °FClear.6 mph73%29.95 "Hg10 mi
2:00 AM68 °FClear.9 mph64%29.95 "Hg10 mi
1:30 AM70 °FClear.12 mph60%29.98 "Hg10 mi
1:00 AM70 °FClear.9 mph60%29.98 "Hg10 mi
12:30 AM70 °FClear.10 mph60%29.98 "Hg10 mi
12:00 AM72 °FClear.7 mph57%29.98 "Hg10 mi
Weather by CustomWeather, © 2016

See weather overviewHow to use our weather pages